Flag Weather past 2 weeks in Richterswil, Zurich, Switzerland

Now
46 °F

Cool.


Feels Like: 46 °F
Forecast: 42 / 54 °F
Wind: 2 mph from Northeast

Location: Zurich Town / Ville.

Current Time: Nov 26, 2014 at 2:20:25 PM

Latest Report: Nov 26, 2014 at 1:00 PM


Visibility: N/A

Pressure: 29.98 "Hg

Humidity: 93%

Dew point: 44 °F

Location of RichterswilLocation

Historic Weather in Richterswil — Graph

°F

Richterswil temperature yesterday

Maximum temperature yesterday: 46 °F (at 11:00 AM)
Minimum temperature yesterday: 44 °F (at 10:00 PM)
Average temperature yesterday: 45 °F

Past Weeks' High & Low Weather Summary

 TemperatureHumidityPressure
High56 °F (Nov 24, 3:00 PM)100% (Nov 20, 5:00 AM)30.32 "Hg (Nov 20, 5:00 AM)
Low35 °F (Nov 20, 5:00 AM)66% (Nov 21, 3:00 PM)29.56 "Hg (Nov 15, 9:00 PM)
Average44 °F91%29.97 "Hg
* Reported Nov 11 12:00 Noon — Nov 26 12:00 Noon, Richterswil, Weather by CustomWeather, © 2014

Note: Actual official high and low records may vary slightly from our data, if they occured in-between our weather recording intervals... More about our weather records

Advertising

Richterswil weather history for previous 24 hours

 ConditionsComfort  
Time TempWeatherWind HumidityBarometerVisibility
12:00 PM
Nov 26
46 °FCool.1 mph93%30.00 "HgN/A
11:00 AM45 °FCool.2 mph95%30.01 "HgN/A
10:00 AM45 °FCool.1 mph96%30.02 "HgN/A
9:00 AM45 °FCool.2 mph96%30.02 "HgN/A
8:00 AM45 °FQuite cool.2 mph97%30.02 "HgN/A
7:00 AM45 °FQuite cool.1 mph95%30.02 "HgN/A
6:00 AM45 °FCool.1 mph95%30.02 "HgN/A
5:00 AM45 °FQuite cool.No wind95%30.03 "HgN/A
4:00 AM45 °FQuite cool.No wind95%30.04 "HgN/A
3:00 AM44 °FQuite cool.1 mph96%30.06 "HgN/A
2:00 AM44 °FQuite cool.1 mph96%30.06 "HgN/A
1:00 AM44 °FQuite cool.2 mph96%30.08 "HgN/A
12:00 AM44 °FQuite cool.1 mph96%30.09 "HgN/A
11:00 PM
Nov 25
44 °FQuite cool.2 mph96%30.10 "HgN/A
10:00 PM44 °FQuite cool.2 mph96%30.11 "HgN/A
9:00 PM44 °FQuite cool.3 mph96%30.10 "HgN/A
8:00 PM44 °FQuite cool.3 mph96%30.11 "HgN/A
7:00 PM44 °FPassing clouds.2 mph94%30.11 "HgN/A
6:00 PM44 °FQuite cool.2 mph95%30.11 "HgN/A
5:00 PM45 °FQuite cool.3 mph93%30.12 "HgN/A
4:00 PM45 °FCool.3 mph92%30.12 "HgN/A
3:00 PM46 °FCool.3 mph93%30.13 "HgN/A
2:00 PM46 °FCool.3 mph93%30.13 "HgN/A
Weather by CustomWeather, © 2014

See weather overviewHow to use our weather pages